Weather History for McCook, NE

Change the Weather History Date:

Tuesday, November 20, 2012

  Actual Average Record
Temperature  
Mean Temperature 49 °F 36 °F  
Max Temperature 74 °F 50 °F 79 °F (1927)
Min Temperature 24 °F 22 °F 2 °F (1937)
Degree Days  
Heating Degree Days 16    
Moisture  
Dew Point 26 °F    
Average Humidity 52    
Maximum Humidity 81    
Minimum Humidity 18    
Precipitation  
Precipitation 0.00 in 0.03 in 1.90 in (1975)
Month to date precipitation 0.04 0.68  
Year to date precipitation 8.13 21.62  
Sea Level Pressure  
Sea Level Pressure 30.19 in    
Wind  
Wind Speed 6 mph (SW)    
Max Wind Speed 18 mph    
Max Gust Speed 26 mph    
Visibility 10 miles    
Events      
T = Trace of Precipitation, MM = Missing Value Source: NWS Daily Summary

Daily Weather History Graph

Daily Weather History Graph

Search for Another Location

Airport:

Trip Planner

Search our weather history database for the weather conditions in past years. The results will help you decide how hot, cold, wet, or windy it might be!

Date:

Astronomy

Nov. 20, 2012 Rise Set
Actual Time 7:34 AM CST 5:21 PM CST
Civil Twilight 7:04 AM CST 5:51 PM CST
Nautical Twilight 6:31 AM CST 6:24 PM CST
Astronomical Twilight 5:59 AM CST 6:56 PM CST
Moon 1:09 PM CST (11/20) No Moon Set
Length of Visible Light 10h 46m
Length of Day
9h 47m
First Quarter, 51% of the Moon is Illuminated
Nov 20
First Quarter
Nov 28
Full
Dec 6
Last Quarter
Dec 13
New
Dec 19
First Quarter

Hourly Weather History & Observations

Time (CST) Temp. Windchill Dew Point Humidity Pressure Visibility Wind Dir Wind Speed Gust Speed Precip Events Conditions
12:53 AM 33.1 °F 30.0 °F 25.0 °F 72% 30.23 in 10.0 mi WSW 3.5 mph - N/A   Clear
1:53 AM 30.0 °F 26.5 °F 23.0 °F 75% 30.22 in 10.0 mi WSW 3.5 mph - N/A   Clear
2:53 AM 30.0 °F 25.2 °F 23.0 °F 75% 30.23 in 10.0 mi WSW 4.6 mph - N/A   Clear
3:53 AM 26.1 °F 20.5 °F 21.0 °F 81% 30.23 in 10.0 mi WSW 4.6 mph - N/A   Clear
4:53 AM 26.1 °F 18.4 °F 21.0 °F 81% 30.24 in 10.0 mi WSW 6.9 mph - N/A   Clear
5:53 AM 27.0 °F 18.7 °F 21.9 °F 81% 30.25 in 10.0 mi WSW 8.1 mph - N/A   Clear
6:53 AM 26.1 °F 21.9 °F 21.0 °F 81% 30.26 in 10.0 mi West 3.5 mph - N/A   Clear
7:53 AM 26.1 °F 16.8 °F 21.0 °F 81% 30.27 in 9.0 mi WSW 9.2 mph - N/A   Clear
8:53 AM 33.1 °F - 25.0 °F 72% 30.30 in 10.0 mi Calm Calm - N/A   Clear
9:53 AM 39.9 °F - 26.1 °F 58% 30.29 in 10.0 mi Calm Calm - N/A   Clear
10:53 AM 48.9 °F - 28.0 °F 44% 30.26 in 10.0 mi SW 4.6 mph - N/A   Clear
11:53 AM 59.0 °F - 28.9 °F 32% 30.22 in 10.0 mi WSW 4.6 mph - N/A   Clear
12:53 PM 64.9 °F - 30.0 °F 27% 30.17 in 10.0 mi Calm Calm - N/A   Clear
1:53 PM 73.0 °F - 28.9 °F 20% 30.13 in 10.0 mi SW 18.4 mph 26.5 mph N/A   Clear
2:53 PM 73.0 °F - 27.0 °F 18% 30.10 in 10.0 mi South 18.4 mph 26.5 mph N/A   Clear
3:53 PM 71.1 °F - 28.0 °F 20% 30.10 in 10.0 mi South 12.7 mph - N/A   Clear
4:53 PM 66.9 °F - 28.9 °F 24% 30.10 in 10.0 mi South 11.5 mph - N/A   Clear
5:53 PM 60.1 °F - 28.0 °F 30% 30.12 in 10.0 mi South 9.2 mph - N/A   Clear
6:53 PM 53.1 °F - 28.0 °F 38% 30.14 in 10.0 mi South 9.2 mph - N/A   Clear
7:53 PM 50.0 °F - 28.9 °F 44% 30.14 in 10.0 mi SW 4.6 mph - N/A   Clear
8:53 PM 51.1 °F - 30.0 °F 44% 30.14 in 10.0 mi South 4.6 mph - N/A   Clear
9:53 PM 48.0 °F - 30.0 °F 50% 30.13 in 10.0 mi West 3.5 mph - N/A   Clear
10:53 PM 44.1 °F - 28.9 °F 55% 30.11 in 10.0 mi Calm Calm - N/A   Clear
11:53 PM 46.9 °F - 30.0 °F 52% 30.08 in 10.0 mi SW 6.9 mph - N/A   Clear